Location: Gollag?dem
(16.8053°N, 80.8024°E)
Time: 17:32:09
(UTC+00:00)

VEP-3 - Pass Details

Date: 13 August 2020
Orbit: 1005 x 33739 km, 23.8° (Epoch: 17 September)

Event Time Altitude Azimuth Distance (km) Brightness Sun altitude
Rises 14:49:54 0° 288° (WNW) 3,716 6.9 -24.9°
Reaches altitude 10° 14:51:49 10° 288° (WNW) 2,853 6.0 -25.3°
Maximum altitude 14:57:27 88° 18° (NNE) 1,545 3.4 -26.5°
Enters shadow 15:01:59 41° 107° (ESE) 2,976 4.4 -27.5°
